Satellite: NO-44
Catalog number: 26931
Epoch time:      10335.82817395
Element set:     620
Inclination:      067.0504 deg
RA of node:       132.0479 deg
Eccentricity:    0.0006009
Arg of perigee:   276.5908 deg
Mean anomaly:     083.4514 deg
Mean motion:   14.29622131 rev/day
Decay rate:      -1.69e-06 rev/day^2
Epoch rev:           47871
Checksum:              302

Satellite: SO-50
Catalog number: 27607
Epoch time:      10335.79665689
Element set:    0332
Inclination:      064.5582 deg
RA of node:       207.3929 deg
Eccentricity:    0.0049439
Arg of perigee:   011.0440 deg
Mean anomaly:     349.1715 deg
Mean motion:   14.71613461 rev/day
Decay rate:        1.5e-07 rev/day^2
Epoch rev:           42704
Checksum:              302

Satellite: CO-55
Catalog number: 27844
Epoch time:      10335.56835084
Element set:    0991
Inclination:      098.7086 deg
RA of node:       342.1432 deg
Eccentricity:    0.0010544
Arg of perigee:   051.0112 deg
Mean anomaly:     309.2012 deg
Mean motion:   14.20750383 rev/day
Decay rate:        7.2e-07 rev/day^2
Epoch rev:           38485
Checksum:              284

Satellite: CO-57
Catalog number: 27848
Epoch time:      10335.55213875
Element set:    0940
Inclination:      098.7141 deg
RA of node:       341.2567 deg
Eccentricity:    0.0010496
Arg of perigee:   054.9158 deg
Mean anomaly:     305.3024 deg
Mean motion:   14.20538396 rev/day
Decay rate:        6.6e-07 rev/day^2
Epoch rev:           38480
Checksum:              316

Satellite: AO-51
Catalog number: 28375
Epoch time:      10336.49877346
Element set:     837
Inclination:      098.0759 deg
RA of node:       320.5466 deg
Eccentricity:    0.0083849
Arg of perigee:   307.4487 deg
Mean anomaly:     051.9090 deg
Mean motion:   14.40713461 rev/day
Decay rate:        6.8e-07 rev/day^2
Epoch rev:           33774
Checksum:              343

Satellite: CP3
Catalog number: 31129
Epoch time:      10336.60041868
Element set:     737
Inclination:      097.9203 deg
RA of node:       006.9946 deg
Eccentricity:    0.0103238
Arg of perigee:   071.6260 deg
Mean anomaly:     289.6129 deg
Mean motion:   14.52343323 rev/day
Decay rate:       1.81e-06 rev/day^2
Epoch rev:           19230
Checksum:              286

Satellite: CO-65
Catalog number: 32785
Epoch time:      10336.72093350
Element set:     852
Inclination:      097.8780 deg
RA of node:       039.1334 deg
Eccentricity:    0.0016179
Arg of perigee:   096.9152 deg
Mean anomaly:     263.3896 deg
Mean motion:   14.81776159 rev/day
Decay rate:       -9.7e-07 rev/day^2
Epoch rev:           14044
Checksum:              338

Satellite: KKS-1
Catalog number: 33493
Epoch time:      10336.81214805
Element set:      92
Inclination:      098.1033 deg
RA of node:       097.9532 deg
Eccentricity:    0.0019070
Arg of perigee:   318.7378 deg
Mean anomaly:     041.2394 deg
Mean motion:   14.81223620 rev/day
Decay rate:       6.05e-06 rev/day^2
Epoch rev:           10044
Checksum:              271

Satellite: SOHLA-1
Catalog number: 33496
Epoch time:      10335.79980376
Element set:     269
Inclination:      098.0687 deg
RA of node:       082.8190 deg
Eccentricity:    0.0007218
Arg of perigee:   038.6815 deg
Mean anomaly:     321.4915 deg
Mean motion:   14.69537373 rev/day
Decay rate:       -5.0e-08 rev/day^2
Epoch rev:            9949
Checksum:              341

Satellite: TISAT-1
Catalog number: 36799
Epoch time:      10336.71766666
Element set:     366
Inclination:      098.1288 deg
RA of node:       037.8192 deg
Eccentricity:    0.0015211
Arg of perigee:   187.2186 deg
Mean anomaly:     172.8809 deg
Mean motion:   14.80249184 rev/day
Decay rate:       4.03e-06 rev/day^2
Epoch rev:            2124
Checksum:              319

Satellite: STUDSAT
Catalog number: 36801
Epoch time:      10335.75263938
Element set:    0120
Inclination:      098.1294 deg
RA of node:       036.7251 deg
Eccentricity:    0.0014015
Arg of perigee:   179.1127 deg
Mean anomaly:     181.0114 deg
Mean motion:   14.79844552 rev/day
Decay rate:      1.113e-05 rev/day^2
Epoch rev:           02109
Checksum:              263

/EX
SB KEPS @ AMSAT  $ORB10336.W
Orbital Elements  10336.WEATHER

HR AMSAT ORBITAL ELEMENTS FOR WEATHER SATELLITES
FROM WA5QGD FORT WORTH,TX December 2, 2010
Send Subscribe/unsubscribe to KEPS at http://www.amsat.org/mailman/listinfo/kep
BID: ORB10336.W
TO ALL RADIO AMATEURS BT

Satellite: NOAA-10
Catalog number: 16969
Epoch time:      10336.52355971
Element set:     297
Inclination:      098.6416 deg
RA of node:       003.7777 deg
Eccentricity:    0.0013104
Arg of perigee:   080.5878 deg
Mean anomaly:     279.6791 deg
Mean motion:   14.27436384 rev/day
Decay rate:       1.03e-06 rev/day^2
Epoch rev:           25959
Checksum:              337

Satellite: NOAA-11
Catalog number: 19531
Epoch time:      10336.32821308
Element set:     307
Inclination:      098.7640 deg
RA of node:       062.4465 deg
Eccentricity:    0.0011818
Arg of perigee:   033.2895 deg
Mean anomaly:     326.9016 deg
Mean motion:   14.14897208 rev/day
Decay rate:      -2.22e-06 rev/day^2
Epoch rev:           14491
Checksum:              288

